Wind_Speed
13 12 9 7 6 5 4 4 5 7 7 8 10 13 14 15 17 19 19 17 15 14 13 11 9 8 8 9 10 10 12 13 15 16 18 19 21 22 22 22 22 23 23 23
12 10 9 6 5 6 7 6 7 7 7 7 9 11 12 13 14 14 13 13 13 12 10 8 6 7 8 9 10 11 13 15 17 18 20 22 23 24 24 24 23 23 23 23
9 8 8 6 6 6 6 6 7 8 8 8 9 11 11 11 10 8 6 7 7 6 3 3 4 6 8 9 11 13 15 17 18 20 21 22 23 23 23 23 22 22 22 22
8 8 7 7 6 6 6 7 7 8 7 8 9 10 10 9 6 4 2 1 1 1 2 3 5 7 9 11 13 15 17 18 20 21 21 22 22 21 21 21 21 21 21 21
8 8 7 6 5 5 6 7 7 7 7 8 9 8 8 6 5 4 3 2 2 3 4 4 6 8 10 12 14 16 18 19 19 19 20 20 21 21 21 21 21 20 20 20
8 7 6 5 5 6 7 7 7 7 7 7 8 6 6 5 5 6 5 4 4 5 5 6 8 9 11 13 15 17 17 18 18 19 20 20 20 21 21 21 21 21 21 21
9 8 6 6 6 6 6 5 7 7 7 8 7 6 5 5 5 5 6 6 7 7 7 8 10 11 13 14 16 17 17 18 19 20 20 20 21 21 21 21 22 22 22 23
7 8 8 7 6 6 6 5 3 3 5 7 8 6 6 5 6 6 7 7 8 8 9 11 12 13 14 15 16 17 18 19 20 20 20 21 21 21 22 22 23 23 24 25
8 9 9 8 7 7 6 5 4 4 5 5 7 7 7 7 7 7 8 8 9 10 11 12 14 15 16 16 17 18 18 19 19 20 21 22 22 23 23 24 25 25 26 27
9 9 11 10 9 8 7 6 5 2 4 4 8 8 9 9 8 8 9 9 11 12 13 14 15 16 16 17 17 18 19 19 20 21 22 23 24 25 25 26 27 28 28 30
10 10 11 11 10 10 9 8 6 5 6 3 6 9 10 10 10 10 10 11 12 14 15 15 16 17 17 17 18 19 19 20 22 23 24 25 26 27 27 28 29 30 31 32
12 11 10 12 11 11 10 10 8 7 8 8 7 10 13 12 11 11 12 13 14 15 16 16 16 17 17 17 18 19 20 22 23 25 26 27 28 29 30 30 31 33 34 35
12 11 8 10 11 12 11 12 11 10 10 9 8 11 17 15 14 14 14 15 16 16 16 16 16 17 17 18 19 20 22 23 25 27 28 29 30 31 32 33 34 35 37 38
13 12 10 10 12 14 13 13 13 12 11 12 12 14 16 17 16 16 16 16 16 16 16 16 16 17 18 19 20 22 23 25 27 28 30 31 32 33 34 35 37 38 40 41
14 13 12 13 14 14 13 14 14 14 14 14 14 15 17 18 17 17 17 17 16 16 16 16 17 18 19 21 22 23 25 26 28 30 31 33 34 35 36 37 40 42 43 43
14 13 14 14 14 14 13 14 15 15 15 16 16 16 17 17 17 17 17 17 17 17 17 17 18 19 21 22 23 24 26 28 30 31 32 34 35 36 37 40 42 44 44 45
14 14 14 13 14 15 13 14 15 15 15 15 15 16 17 17 18 18 18 17 17 17 18 18 19 21 22 23 25 26 28 29 31 32 33 35 36 38 40 42 44 45 46 46
16 16 15 14 15 15 13 16 15 14 14 15 15 16 17 18 19 19 18 18 18 18 19 20 21 22 24 25 26 28 29 30 32 33 34 36 38 40 42 44 46 47 47 46
17 17 16 16 15 15 15 17 16 14 14 16 17 17 18 19 20 20 19 19 19 19 20 21 22 24 25 27 28 29 30 31 32 33 35 36 39 41 44 46 48 48 47 46
18 18 18 18 17 15 16 20 18 16 15 19 19 20 21 21 20 21 21 20 21 21 22 23 24 26 27 28 29 31 32 32 33 35 36 39 41 43 46 48 49 49 48 46
20 20 20 20 19 17 21 21 19 17 19 21 22 22 22 22 21 22 22 22 23 24 25 26 27 28 29 30 31 32 33 34 35 37 39 41 44 46 47 49 50 50 48 45
21 21 22 22 20 20 24 22 22 23 22 23 23 23 24 23 24 24 24 25 25 26 27 28 29 30 31 32 33 34 34 35 36 39 41 44 47 48 50 51 51 50 47 44
23 24 25 25 24 26 25 24 24 23 23 23 24 24 25 25 25 26 27 28 28 29 30 31 32 33 33 34 36 36 36 37 39 41 44 47 49 50 51 52 51 49 46 43
27 27 27 27 27 27 26 26 26 25 25 25 26 26 27 27 28 28 29 30 31 32 33 34 35 35 36 37 37 39 40 41 42 44 46 48 50 51 52 52 50 48 45 42
29 28 28 28 29 28 28 28 28 28 28 28 28 29 29 30 30 30 31 32 33 34 35 36 37 38 39 40 40 41 43 44 44 46 49 50 51 52 53 51 49 46 44 41
27 28 28 30 30 30 30 30 30 30 30 30 30 31 32 32 32 32 33 34 35 36 37 38 40 42 43 43 44 44 45 46 47 49 51 51 52 53 52 50 47 44 42 40
Wind_Direction
11 14 17 8 16 14 354 330 310 304 299 291 285 281 280 276 275 274 270 267 266 265 270 272 276 283 295 304 310 314 316 317 316 316 316 315 314 313 312 311 308 305 303 301
6 2 359 2 6 7 358 344 323 314 307 301 300 298 295 293 289 283 270 262 259 262 270 268 277 289 307 317 320 320 320 320 320 320 319 318 317 315 313 311 309 307 304 302
354 342 344 346 348 342 339 332 317 316 312 309 310 314 309 308 303 298 282 260 258 262 267 277 304 318 323 326 326 325 325 323 322 320 318 318 317 315 312 311 309 307 306 304
347 340 337 336 331 332 327 327 323 318 322 320 319 323 321 324 319 320 326 315 327 303 324 326 330 333 331 330 328 326 324 322 321 320 319 319 317 316 316 314 312 310 309 307
338 338 334 330 323 320 315 323 326 323 325 327 328 328 327 337 346 357 8 9 359 354 356 354 342 334 330 328 325 324 323 323 322 322 321 319 319 319 318 316 315 314 312 310
329 329 324 322 321 320 318 325 335 338 341 331 323 335 338 345 0 13 18 14 1 352 355 347 335 329 327 325 324 324 325 325 323 322 321 321 320 319 318 317 315 314 313 311
325 328 316 305 310 315 325 349 353 348 336 310 311 324 327 335 350 1 6 7 2 353 346 338 329 325 324 322 322 322 322 322 320 320 320 321 320 319 318 317 317 315 314 313
307 309 308 297 298 306 319 329 309 299 304 305 305 308 313 324 334 343 346 346 344 339 333 327 322 320 320 319 318 318 318 319 319 319 320 321 321 320 319 319 319 318 316 315
284 289 295 287 285 294 305 311 302 319 324 328 300 299 305 316 326 332 332 330 328 325 321 317 315 315 315 314 315 315 316 318 321 322 323 323 323 322 321 320 319 318 317 316
280 289 293 287 279 280 285 294 300 314 299 310 311 307 301 307 314 317 318 318 317 316 314 311 310 310 310 310 312 314 316 320 323 325 326 326 325 324 323 322 320 318 317 317
276 284 289 286 277 275 277 284 288 286 277 275 294 292 290 297 301 305 306 308 309 309 307 306 305 306 307 308 310 314 317 320 324 327 328 328 327 326 324 323 322 320 319 318
276 279 278 279 277 273 270 275 282 286 286 283 282 285 286 289 291 297 302 304 305 305 303 302 302 303 305 307 310 314 318 321 325 327 329 329 328 326 325 324 323 321 320 319
275 275 285 291 288 280 277 277 279 282 285 285 283 281 283 285 287 293 300 304 304 303 302 301 302 303 305 308 312 316 319 323 325 327 329 329 328 327 325 324 323 322 320 319
269 268 257 251 260 271 281 281 279 281 284 282 279 273 278 283 287 294 301 305 305 303 302 302 302 304 306 309 313 317 321 323 326 328 329 328 327 326 325 325 324 322 321 319
268 268 267 264 267 273 274 273 276 279 278 276 276 276 276 280 288 296 303 305 305 303 302 302 303 305 308 311 315 318 321 324 326 327 328 327 327 326 326 325 324 323 321 319
266 267 268 271 276 278 278 275 276 279 279 276 276 278 277 283 291 297 302 304 304 302 302 303 305 307 310 313 316 319 321 324 326 327 327 327 327 326 326 326 326 324 322 320
264 268 268 268 272 278 284 280 278 279 277 275 275 275 281 288 294 299 303 304 304 303 303 305 306 308 311 314 316 318 320 323 326 326 326 327 326 326 326 327 326 325 324 321
262 264 266 267 268 273 270 272 277 277 277 277 279 283 287 292 297 300 302 303 303 303 304 305 305 307 310 313 315 317 320 322 324 325 325 326 327 327 328 328 328 326 325 322
261 261 262 264 268 270 273 275 276 279 281 280 283 287 290 293 298 299 300 300 301 302 303 304 306 308 310 312 314 316 319 321 322 324 324 326 327 329 329 330 329 328 326 323
262 261 262 264 262 259 261 266 273 278 283 279 283 287 290 293 296 297 298 300 301 302 303 305 306 308 309 311 313 315 317 319 321 323 324 325 328 329 329 330 330 330 327 324
265 264 264 265 265 264 261 265 270 273 270 277 283 286 289 291 294 295 298 300 302 303 304 305 306 307 309 310 312 314 315 318 320 323 323 325 327 328 329 330 331 330 328 326
263 265 266 264 266 263 266 270 270 270 276 281 284 286 289 291 294 296 298 300 302 303 304 305 306 307 308 310 312 314 314 316 319 322 323 326 327 328 329 329 330 330 329 326
260 257 258 261 262 265 269 273 275 277 279 280 283 285 287 290 293 296 298 300 301 302 303 304 305 306 307 310 312 313 313 315 317 320 322 324 325 326 327 328 328 329 328 326
263 260 261 264 266 269 272 275 278 280 281 282 284 285 287 290 293 295 297 298 300 301 302 303 305 306 307 309 310 311 311 314 315 318 320 322 323 324 325 327 327 327 327 325
260 264 265 266 268 271 274 277 280 282 283 284 285 286 288 290 291 293 294 296 297 299 300 302 303 304 305 305 307 309 311 311 312 315 318 319 320 321 323 324 325 325 325 324
263 264 265 267 270 272 274 276 279 280 281 282 284 285 287 289 291 292 293 294 296 297 298 300 300 302 302 303 304 306 308 308 310 313 316 317 318 320 321 322 323 323 323 322
Height
5884 5883 5882 5881 5879 5879 5878 5878 5877 5876 5875 5875 5874 5873 5872 5871 5870 5869 5868 5868 5868 5869 5870 5870 5871 5871 5871 5870 5869 5867 5866 5864 5862 5859 5857 5855 5852 5850 5847 5844 5842 5839 5837 5835
5885 5884 5883 5881 5879 5878 5877 5877 5876 5875 5874 5873 5872 5870 5869 5867 5865 5864 5863 5863 5864 5865 5866 5867 5868 5869 5868 5867 5866 5864 5862 5860 5858 5855 5853 5850 5847 5844 5842 5839 5837 5834 5832 5829
5886 5885 5882 5881 5880 5879 5878 5877 5876 5874 5873 5872 5871 5869 5867 5864 5863 5861 5860 5861 5862 5863 5864 5865 5866 5866 5865 5864 5862 5861 5859 5857 5854 5852 5849 5846 5843 5840 5837 5835 5832 5829 5827 5824
5885 5884 5882 5881 5879 5878 5878 5876 5874 5873 5872 5872 5871 5869 5866 5863 5862 5861 5860 5861 5861 5861 5862 5863 5863 5863 5862 5861 5859 5858 5856 5853 5851 5848 5845 5842 5839 5836 5833 5830 5827 5825 5822 5819
5885 5883 5882 5880 5879 5878 5877 5875 5873 5872 5871 5871 5870 5868 5867 5863 5862 5861 5861 5860 5861 5861 5861 5861 5861 5861 5860 5859 5857 5855 5853 5850 5848 5845 5842 5839 5836 5833 5829 5826 5823 5820 5817 5815
5884 5882 5880 5879 5878 5877 5876 5875 5873 5872 5872 5872 5869 5868 5867 5864 5863 5862 5861 5860 5860 5860 5860 5860 5860 5859 5858 5857 5855 5853 5850 5848 5845 5842 5839 5836 5833 5829 5826 5822 5819 5816 5813 5810
5882 5881 5879 5878 5877 5876 5875 5875 5876 5875 5874 5872 5869 5868 5868 5865 5864 5863 5862 5861 5860 5860 5859 5859 5858 5857 5856 5854 5852 5850 5848 5845 5843 5839 5836 5833 5829 5826 5822 5818 5815 5811 5808 5804
5882 5882 5878 5877 5877 5876 5875 5875 5876 5876 5875 5872 5868 5867 5867 5865 5864 5863 5862 5861 5860 5859 5858 5857 5856 5855 5853 5852 5850 5848 5845 5843 5840 5836 5833 5829 5825 5821 5817 5814 5810 5806 5802 5798
5881 5880 5877 5876 5875 5875 5874 5873 5873 5873 5872 5871 5869 5867 5866 5864 5863 5862 5861 5860 5859 5858 5857 5856 5854 5853 5851 5849 5847 5845 5842 5839 5836 5833 5829 5825 5821 5816 5812 5808 5804 5800 5796 5792
5877 5877 5875 5874 5873 5873 5873 5872 5871 5872 5871 5872 5870 5867 5866 5863 5862 5861 5860 5859 5858 5857 5855 5853 5852 5850 5848 5846 5844 5842 5839 5836 5832 5828 5824 5820 5815 5811 5807 5802 5798 5793 5789 5785
5874 5875 5874 5872 5871 5872 5871 5870 5870 5870 5869 5870 5870 5870 5864 5862 5861 5860 5858 5857 5856 5854 5853 5851 5849 5847 5845 5843 5841 5838 5835 5832 5828 5823 5819 5814 5810 5805 5801 5796 5791 5786 5782 5777
5871 5871 5871 5870 5868 5868 5868 5868 5868 5868 5867 5866 5867 5869 5861 5860 5859 5858 5857 5855 5853 5851 5850 5848 5846 5844 5842 5839 5837 5834 5830 5827 5823 5818 5814 5809 5804 5799 5794 5789 5784 5779 5774 5768
5868 5868 5869 5869 5868 5866 5865 5864 5864 5864 5864 5864 5865 5867 5859 5857 5856 5855 5853 5852 5850 5848 5846 5844 5842 5840 5838 5835 5832 5829 5826 5822 5817 5813 5808 5803 5798 5793 5788 5783 5777 5772 5766 5760
5864 5865 5866 5868 5866 5864 5862 5862 5861 5861 5861 5862 5861 5860 5857 5854 5853 5851 5850 5848 5846 5844 5842 5840 5838 5836 5833 5831 5827 5824 5820 5816 5811 5807 5802 5797 5792 5786 5781 5775 5770 5764 5757 5751
5860 5861 5861 5860 5860 5859 5859 5858 5857 5857 5856 5856 5856 5855 5853 5850 5849 5848 5846 5844 5842 5840 5838 5836 5834 5831 5829 5826 5822 5819 5815 5810 5806 5801 5796 5791 5785 5780 5774 5768 5762 5755 5748 5741
5856 5857 5857 5856 5856 5855 5855 5854 5853 5853 5852 5851 5850 5850 5848 5846 5845 5844 5842 5840 5837 5835 5833 5831 5829 5826 5823 5820 5817 5813 5809 5804 5799 5795 5790 5784 5778 5773 5767 5760 5754 5746 5739 5732
5852 5852 5852 5853 5853 5851 5852 5851 5850 5849 5848 5847 5846 5846 5843 5842 5841 5839 5837 5835 5833 5831 5828 5826 5823 5821 5818 5814 5811 5807 5802 5798 5793 5788 5783 5777 5771 5765 5759 5752 5745 5737 5729 5722
5848 5848 5848 5848 5849 5848 5850 5846 5845 5844 5843 5842 5841 5840 5839 5838 5836 5834 5832 5830 5828 5826 5823 5821 5818 5815 5812 5808 5804 5800 5796 5791 5787 5782 5776 5771 5764 5758 5751 5743 5735 5728 5720 5712
5843 5843 5843 5844 5844 5844 5844 5841 5840 5840 5840 5838 5837 5836 5834 5833 5831 5829 5827 5825 5823 5820 5818 5815 5812 5809 5806 5802 5798 5794 5789 5785 5780 5775 5769 5763 5757 5750 5742 5734 5726 5718 5710 5702
5838 5838 5839 5838 5839 5840 5841 5836 5836 5837 5836 5834 5832 5831 5829 5828 5827 5825 5822 5820 5817 5814 5812 5809 5806 5803 5799 5795 5791 5787 5782 5778 5773 5767 5761 5755 5748 5741 5733 5725 5717 5709 5700 5692
5833 5833 5833 5833 5833 5834 5832 5831 5832 5833 5833 5829 5827 5826 5824 5822 5821 5819 5816 5813 5811 5808 5805 5802 5799 5796 5792 5788 5784 5779 5775 5770 5765 5759 5753 5747 5740 5732 5725 5716 5708 5700 5691 5683
5827 5828 5827 5827 5828 5830 5825 5826 5826 5826 5825 5823 5821 5820 5818 5816 5814 5811 5809 5807 5804 5801 5799 5795 5792 5788 5784 5780 5776 5772 5767 5762 5756 5751 5744 5738 5731 5723 5715 5707 5699 5691 5683 5674
5820 5821 5821 5821 5823 5820 5819 5819 5818 5818 5817 5816 5814 5813 5811 5809 5807 5805 5802 5800 5797 5794 5791 5788 5784 5780 5776 5772 5768 5763 5758 5753 5747 5741 5735 5728 5721 5714 5706 5698 5690 5682 5674 5666
5813 5812 5813 5813 5813 5812 5812 5811 5811 5810 5809 5808 5807 5805 5803 5802 5800 5797 5795 5792 5789 5786 5783 5779 5775 5771 5767 5763 5759 5754 5749 5743 5738 5732 5725 5719 5712 5704 5697 5689 5681 5673 5665 5658
5805 5805 5805 5806 5805 5805 5804 5804 5803 5802 5801 5800 5798 5797 5795 5794 5791 5789 5786 5784 5780 5777 5774 5770 5766 5762 5758 5754 5749 5744 5739 5733 5728 5722 5715 5709 5702 5694 5687 5679 5672 5664 5657 5650
5797 5797 5798 5798 5797 5797 5796 5796 5795 5793 5792 5791 5790 5788 5786 5784 5782 5780 5777 5774 5771 5768 5764 5761 5757 5752 5748 5743 5738 5733 5729 5723 5717 5711 5705 5699 5691 5684 5677 5670 5662 5655 5649 5642